TimeCDT,TemperatureF,Dew PointF,Humidity,Sea Level PressureIn,VisibilityMPH,Wind Direction,Wind SpeedMPH,Gust SpeedMPH,PrecipitationIn,Events,Conditions,WindDirDegrees,DateUTC
12:53 AM,57.9,16.0,19,30.02,10.0,NE,3.5,-,N/A,,Clear,40,2014-03-29 05:53:00
1:53 AM,53.1,19.0,26,30.02,10.0,SW,10.4,-,N/A,,Clear,230,2014-03-29 06:53:00
2:53 AM,55.9,19.0,24,30.03,10.0,NNE,3.5,-,N/A,,Clear,20,2014-03-29 07:53:00
3:53 AM,51.1,17.1,26,30.04,10.0,ENE,6.9,-,N/A,,Clear,60,2014-03-29 08:53:00
4:53 AM,46.0,19.9,35,30.06,10.0,East,9.2,-,N/A,,Clear,90,2014-03-29 09:53:00
5:53 AM,46.9,23.0,39,30.10,10.0,ESE,8.1,-,N/A,,Clear,110,2014-03-29 10:53:00
6:53 AM,46.0,30.9,56,30.14,10.0,ESE,8.1,-,N/A,,Clear,110,2014-03-29 11:53:00
7:53 AM,46.0,32.0,58,30.18,10.0,ESE,5.8,-,N/A,,Clear,120,2014-03-29 12:53:00
8:53 AM,50.0,36.0,59,30.22,10.0,ESE,4.6,-,N/A,,Clear,120,2014-03-29 13:53:00
9:53 AM,53.1,37.0,55,30.25,10.0,East,3.5,-,N/A,,Clear,100,2014-03-29 14:53:00
10:53 AM,57.0,37.0,47,30.26,10.0,East,11.5,-,N/A,,Clear,90,2014-03-29 15:53:00
11:53 AM,64.0,34.0,33,30.24,10.0,SE,13.8,23.0,N/A,,Clear,130,2014-03-29 16:53:00
12:53 PM,66.9,32.0,27,30.21,10.0,SE,17.3,26.5,N/A,,Clear,130,2014-03-29 17:53:00
1:53 PM,70.0,34.0,27,30.17,10.0,SE,11.5,26.5,N/A,,Clear,140,2014-03-29 18:53:00
2:53 PM,73.0,34.0,24,30.11,10.0,SE,18.4,27.6,N/A,,Clear,130,2014-03-29 19:53:00
3:53 PM,75.0,30.9,20,30.08,10.0,ESE,15.0,24.2,N/A,,Clear,110,2014-03-29 20:53:00
4:53 PM,73.9,30.9,21,30.06,10.0,SE,16.1,23.0,N/A,,Clear,130,2014-03-29 21:53:00
5:53 PM,75.0,30.9,20,30.04,10.0,ESE,15.0,-,N/A,,Clear,120,2014-03-29 22:53:00
6:53 PM,73.9,28.9,19,30.04,10.0,SE,15.0,26.5,N/A,,Clear,140,2014-03-29 23:53:00
7:53 PM,71.1,30.0,22,30.04,10.0,SE,12.7,21.9,N/A,,Clear,140,2014-03-30 00:53:00
8:53 PM,68.0,32.0,26,30.04,10.0,SE,10.4,-,N/A,,Clear,140,2014-03-30 01:53:00
9:53 PM,66.0,33.1,29,30.05,10.0,SE,11.5,-,N/A,,Clear,130,2014-03-30 02:53:00
10:53 PM,64.0,35.1,34,30.04,10.0,SSE,16.1,-,N/A,,Clear,150,2014-03-30 03:53:00
11:53 PM,64.9,34.0,32,30.01,10.0,SSE,19.6,31.1,N/A,,Clear,160,2014-03-30 04:53:00